Location: Duac?
(36.9744°N, 30.6500°E)
Time: 07:43:41
(UTC+00:00)

COSMOS 2406 - Pass Details

Date: 05 August 2024
Orbit: 846 x 859 km, 71.0° (Epoch: 10 September)

Event Time Altitude Azimuth Distance (km) Brightness Sun altitude
Rises 17:47:47 0° 331° (NNW) 3,413 7.5 -9.4°
Reaches altitude 10° 17:50:18 10° 326° (NW) 2,475 6.8 -9.9°
Maximum altitude 17:55:43 47° 254° (WSW) 1,110 4.2 -10.8°
Drops below altitude 10° 18:01:07 10° 182° (S) 2,467 5.3 -11.7°
Sets 18:03:38 0° 176° (S) 3,401 6.0 -12.2°
